TimeMDT,TemperatureF,Dew PointF,Humidity,Sea Level PressureIn,VisibilityMPH,Wind Direction,Wind SpeedMPH,Gust SpeedMPH,PrecipitationIn,Events,Conditions,WindDirDegrees,DateUTC
12:53 AM,54.0,43.0,66,29.90,10.0,ENE,10.4,-,0.00,Rain,Light Rain,60,2013-05-23 06:53:00
1:05 AM,53.1,43.0,69,29.92,10.0,ENE,15.0,-,0.00,,Mostly Cloudy,60,2013-05-23 07:05:00
1:53 AM,53.1,43.0,69,29.85,10.0,ENE,16.1,-,0.00,Rain,Light Rain,70,2013-05-23 07:53:00
2:53 AM,53.1,44.1,71,29.83,10.0,ENE,12.7,20.7,0.00,,Scattered Clouds,60,2013-05-23 08:53:00
3:53 AM,53.1,43.0,69,29.83,10.0,ENE,12.7,-,N/A,,Mostly Cloudy,70,2013-05-23 09:53:00
4:11 AM,53.1,43.0,69,29.88,10.0,ENE,10.4,-,N/A,,Overcast,70,2013-05-23 10:11:00
4:53 AM,52.0,42.1,69,29.82,10.0,ESE,11.5,23.0,N/A,,Mostly Cloudy,110,2013-05-23 10:53:00
5:07 AM,53.1,42.1,66,29.86,10.0,East,15.0,25.3,N/A,,Mostly Cloudy,100,2013-05-23 11:07:00
5:53 AM,52.0,42.1,69,29.82,10.0,East,20.7,31.1,N/A,,Mostly Cloudy,90,2013-05-23 11:53:00
6:53 AM,52.0,42.1,69,29.82,10.0,East,16.1,24.2,N/A,,Mostly Cloudy,100,2013-05-23 12:53:00
7:53 AM,53.1,43.0,69,29.82,10.0,ESE,16.1,25.3,N/A,,Mostly Cloudy,120,2013-05-23 13:53:00
8:53 AM,54.0,43.0,66,29.84,10.0,ESE,11.5,-,N/A,,Mostly Cloudy,120,2013-05-23 14:53:00
9:53 AM,55.9,44.1,64,29.82,10.0,ESE,17.3,-,N/A,,Scattered Clouds,120,2013-05-23 15:53:00
10:53 AM,60.1,45.0,57,29.81,10.0,East,15.0,-,N/A,,Partly Cloudy,100,2013-05-23 16:53:00
11:53 AM,62.1,45.0,53,29.80,10.0,ESE,15.0,-,N/A,,Partly Cloudy,110,2013-05-23 17:53:00
12:53 PM,64.9,46.0,50,29.78,10.0,East,12.7,-,N/A,,Partly Cloudy,100,2013-05-23 18:53:00
1:53 PM,66.9,45.0,45,29.77,10.0,East,15.0,19.6,N/A,,Scattered Clouds,80,2013-05-23 19:53:00
2:53 PM,69.1,46.0,44,29.74,10.0,SE,16.1,20.7,N/A,,Scattered Clouds,130,2013-05-23 20:53:00
3:53 PM,69.1,46.0,44,29.72,10.0,ENE,17.3,26.5,N/A,,Scattered Clouds,70,2013-05-23 21:53:00
4:53 PM,69.1,46.0,44,29.72,10.0,East,9.2,-,N/A,,Mostly Cloudy,90,2013-05-23 22:53:00
5:53 PM,66.9,46.9,49,29.70,10.0,NE,17.3,25.3,N/A,,Mostly Cloudy,40,2013-05-23 23:53:00
6:48 PM,66.2,48.2,52,29.75,10.0,NNE,18.4,-,0.00,Rain-Thunderstorm,Light Thunderstorms and Rain,20,2013-05-24 00:48:00
6:53 PM,66.0,46.9,50,29.70,10.0,North,13.8,23.0,0.00,Rain-Thunderstorm,Light Thunderstorms and Rain,10,2013-05-24 00:53:00
7:40 PM,60.1,52.0,75,29.72,10.0,NE,19.6,-,0.09,Rain,Light Rain,40,2013-05-24 01:40:00
7:53 PM,60.1,51.1,72,29.68,10.0,NNE,18.4,-,0.09,,Mostly Cloudy,30,2013-05-24 01:53:00
8:53 PM,57.9,51.1,78,29.67,10.0,NNE,15.0,24.2,0.01,Rain-Thunderstorm,Thunderstorms and Rain,20,2013-05-24 02:53:00
9:53 PM,57.0,53.1,87,29.73,7.0,WNW,13.8,-,0.04,Rain-Thunderstorm,Thunderstorms and Rain,300,2013-05-24 03:53:00
10:53 PM,54.0,51.1,90,29.70,10.0,NW,28.8,35.7,0.03,Rain-Thunderstorm,Light Thunderstorms and Rain,320,2013-05-24 04:53:00
11:11 PM,53.1,50.0,89,29.77,10.0,NW,25.3,32.2,0.00,Rain,Light Rain,320,2013-05-24 05:11:00
11:53 PM,54.0,51.1,90,29.76,10.0,NW,18.4,-,0.01,,Overcast,320,2013-05-24 05:53:00